Time,TemperatureF,DewpointF,PressureIn,WindDirection,WindDirectionDegrees,WindSpeedMPH,WindSpeedGustMPH,Humidity,HourlyPrecipIn,Conditions,Clouds,dailyrainin,SolarRadiationWatts/m^2,SoftwareType,DateUTC
2013-09-03 00:04:00,68.7,56.5,30.06,NW,307,0.0,-999.0,65,0.00,,,0.00,0,WeatherHawk,2013-09-03 04:04:00,
2013-09-03 00:09:00,69.5,58.4,30.06,NW,307,0.0,-999.0,68,0.00,,,0.00,0,WeatherHawk,2013-09-03 04:09:00,
2013-09-03 00:14:00,69.0,58.0,30.07,NNW,334,0.0,-999.0,68,0.00,,,0.00,1,WeatherHawk,2013-09-03 04:14:00,
2013-09-03 00:19:00,68.3,56.9,30.05,NNE,19,0.0,-999.0,67,0.00,,,0.00,1,WeatherHawk,2013-09-03 04:19:00,
2013-09-03 00:24:00,68.0,57.4,30.05,NNW,329,0.0,-999.0,69,0.00,,,0.00,0,WeatherHawk,2013-09-03 04:24:00,
2013-09-03 00:29:00,68.2,58.4,30.06,WSW,238,0.0,-999.0,71,0.00,,,0.00,0,WeatherHawk,2013-09-03 04:29:00,
2013-09-03 00:35:00,67.8,58.5,30.07,WSW,238,0.0,-999.0,72,0.00,,,0.00,0,WeatherHawk,2013-09-03 04:35:00,
2013-09-03 00:45:00,68.4,59.8,30.06,WSW,238,0.0,-999.0,74,0.00,,,0.00,1,WeatherHawk,2013-09-03 04:45:00,
2013-09-03 00:54:00,68.2,59.9,30.07,NW,312,0.0,-999.0,75,0.00,,,0.00,0,WeatherHawk,2013-09-03 04:54:00,
2013-09-03 00:59:00,68.0,59.4,30.06,NW,312,0.0,-999.0,74,0.00,,,0.00,0,WeatherHawk,2013-09-03 04:59:00,
2013-09-03 01:04:00,67.5,58.9,30.06,NW,312,0.0,-999.0,74,0.00,,,0.00,0,WeatherHawk,2013-09-03 05:04:00,
2013-09-03 01:09:00,67.7,59.5,30.06,NW,312,0.0,-999.0,75,0.00,,,0.00,1,WeatherHawk,2013-09-03 05:09:00,
2013-09-03 01:14:00,67.6,59.3,30.07,NW,311,0.0,-999.0,75,0.00,,,0.00,1,WeatherHawk,2013-09-03 05:14:00,
2013-09-03 01:19:00,67.0,59.2,30.07,West,280,0.0,-999.0,76,0.00,,,0.00,0,WeatherHawk,2013-09-03 05:19:00,
2013-09-03 01:24:00,67.5,59.7,30.07,West,280,0.0,-999.0,76,0.00,,,0.00,0,WeatherHawk,2013-09-03 05:24:00,
2013-09-03 01:29:00,67.4,59.9,30.07,West,280,0.0,-999.0,77,0.00,,,0.00,0,WeatherHawk,2013-09-03 05:29:00,
2013-09-03 01:34:00,67.5,60.0,30.07,West,280,0.0,-999.0,77,0.00,,,0.00,0,WeatherHawk,2013-09-03 05:34:00,
2013-09-03 01:39:00,67.4,60.3,30.07,West,279,0.0,-999.0,78,0.00,,,0.00,0,WeatherHawk,2013-09-03 05:39:00,
2013-09-03 01:44:00,67.7,60.5,30.08,West,277,0.0,-999.0,78,0.00,,,0.00,0,WeatherHawk,2013-09-03 05:44:00,
2013-09-03 01:49:00,67.5,60.4,30.07,South,179,0.0,-999.0,78,0.00,,,0.00,0,WeatherHawk,2013-09-03 05:49:00,
2013-09-03 01:54:00,67.4,60.3,30.08,South,179,0.0,-999.0,78,0.00,,,0.00,0,WeatherHawk,2013-09-03 05:54:00,
2013-09-03 01:59:00,67.5,60.4,30.07,South,179,0.0,-999.0,78,0.00,,,0.00,0,WeatherHawk,2013-09-03 05:59:00,
2013-09-03 02:04:00,67.5,60.0,30.07,South,179,0.0,-999.0,77,0.00,,,0.00,0,WeatherHawk,2013-09-03 06:04:00,
2013-09-03 02:09:00,67.8,60.3,30.06,South,189,0.0,-999.0,77,0.00,,,0.00,0,WeatherHawk,2013-09-03 06:09:00,
2013-09-03 02:14:00,68.2,60.3,30.06,SE,144,0.0,-999.0,76,0.00,,,0.00,0,WeatherHawk,2013-09-03 06:14:00,
2013-09-03 02:19:00,67.0,58.4,30.06,North,1,0.0,-999.0,74,0.00,,,0.00,0,WeatherHawk,2013-09-03 06:19:00,
2013-09-03 02:25:00,66.7,57.7,30.06,North,1,0.0,-999.0,73,0.00,,,0.00,0,WeatherHawk,2013-09-03 06:25:00,
2013-09-03 02:34:00,66.6,58.4,30.06,NNE,24,0.0,-999.0,75,0.00,,,0.00,0,WeatherHawk,2013-09-03 06:34:00,
2013-09-03 02:39:00,66.1,58.0,30.06,NNE,24,0.0,-999.0,75,0.00,,,0.00,0,WeatherHawk,2013-09-03 06:39:00,
2013-09-03 02:44:00,66.4,58.6,30.05,NNE,24,0.0,-999.0,76,0.00,,,0.00,0,WeatherHawk,2013-09-03 06:44:00,
2013-09-03 02:49:00,66.1,58.7,30.05,WNW,294,0.0,-999.0,77,0.00,,,0.00,0,WeatherHawk,2013-09-03 06:49:00,
2013-09-03 02:54:00,66.7,59.6,30.06,WNW,294,0.0,-999.0,78,0.00,,,0.00,0,WeatherHawk,2013-09-03 06:54:00,
2013-09-03 02:59:00,66.0,59.3,30.07,WNW,294,0.0,-999.0,79,0.00,,,0.00,0,WeatherHawk,2013-09-03 06:59:00,
2013-09-03 03:04:00,66.1,59.4,30.07,WNW,294,0.0,-999.0,79,0.00,,,0.00,0,WeatherHawk,2013-09-03 07:04:00,
2013-09-03 03:09:00,66.1,59.8,30.07,WNW,294,0.0,-999.0,80,0.00,,,0.00,0,WeatherHawk,2013-09-03 07:09:00,
2013-09-03 03:14:00,65.9,59.9,30.07,WNW,294,0.0,-999.0,81,0.00,,,0.00,0,WeatherHawk,2013-09-03 07:14:00,
2013-09-03 03:19:00,66.0,60.0,30.08,WNW,294,0.0,-999.0,81,0.00,,,0.00,0,WeatherHawk,2013-09-03 07:19:00,
2013-09-03 03:24:00,66.0,60.3,30.07,WNW,294,0.0,-999.0,82,0.00,,,0.00,0,WeatherHawk,2013-09-03 07:24:00,
2013-09-03 03:29:00,66.3,60.6,30.06,North,3,0.0,-999.0,82,0.00,,,0.00,0,WeatherHawk,2013-09-03 07:29:00,
2013-09-03 03:34:00,66.0,60.3,30.07,NNE,12,0.0,-999.0,82,0.00,,,0.00,0,WeatherHawk,2013-09-03 07:34:00,
2013-09-03 03:39:00,65.8,60.2,30.07,NNE,12,0.0,-999.0,82,0.00,,,0.00,0,WeatherHawk,2013-09-03 07:39:00,
2013-09-03 03:44:00,66.7,61.4,30.07,North,0,0.0,-999.0,83,0.00,,,0.00,0,WeatherHawk,2013-09-03 07:44:00,
2013-09-03 03:49:00,66.8,61.4,30.08,NW,319,0.0,-999.0,83,0.00,,,0.00,0,WeatherHawk,2013-09-03 07:49:00,
2013-09-03 03:54:00,67.2,62.2,30.08,NNW,333,0.0,-999.0,84,0.00,,,0.00,0,WeatherHawk,2013-09-03 07:54:00,
2013-09-03 03:59:00,67.0,62.0,30.08,WNW,285,0.0,-999.0,84,0.00,,,0.00,0,WeatherHawk,2013-09-03 07:59:00,
2013-09-03 04:04:00,66.2,61.2,30.07,WNW,286,0.0,-999.0,84,0.00,,,0.00,0,WeatherHawk,2013-09-03 08:04:00,
2013-09-03 04:09:00,66.9,61.9,30.08,NNW,339,0.0,-999.0,84,0.00,,,0.00,1,WeatherHawk,2013-09-03 08:09:00,
2013-09-03 04:14:00,67.1,62.1,30.08,NNW,330,0.0,-999.0,84,0.00,,,0.00,0,WeatherHawk,2013-09-03 08:14:00,
2013-09-03 04:19:00,67.4,62.0,30.08,North,7,0.0,-999.0,83,0.00,,,0.00,0,WeatherHawk,2013-09-03 08:19:00,
2013-09-03 04:24:00,67.9,62.2,30.08,WNW,284,4.0,-999.0,82,0.00,,,0.00,0,WeatherHawk,2013-09-03 08:24:00,
2013-09-03 04:29:00,67.9,61.5,30.08,NW,324,1.0,-999.0,80,0.00,,,0.00,0,WeatherHawk,2013-09-03 08:29:00,
2013-09-03 04:34:00,68.0,58.6,30.08,WNW,293,4.0,-999.0,72,0.00,,,0.00,0,WeatherHawk,2013-09-03 08:34:00,
2013-09-03 04:39:00,67.9,56.5,30.08,NE,42,5.0,-999.0,67,0.00,,,0.00,0,WeatherHawk,2013-09-03 08:39:00,
2013-09-03 04:44:00,67.8,56.0,30.08,WNW,292,0.0,-999.0,66,0.00,,,0.00,0,WeatherHawk,2013-09-03 08:44:00,
2013-09-03 04:49:00,67.6,55.8,30.08,WNW,290,0.0,-999.0,66,0.00,,,0.00,0,WeatherHawk,2013-09-03 08:49:00,
2013-09-03 04:54:00,67.5,55.7,30.08,NW,315,2.0,-999.0,66,0.00,,,0.00,0,WeatherHawk,2013-09-03 08:54:00,
2013-09-03 04:59:00,67.5,55.3,30.07,NW,313,4.0,-999.0,65,0.00,,,0.00,0,WeatherHawk,2013-09-03 08:59:00,
2013-09-03 05:04:00,67.1,54.9,30.09,WNW,301,0.0,-999.0,65,0.00,,,0.00,0,WeatherHawk,2013-09-03 09:04:00,
2013-09-03 05:09:00,67.0,55.2,30.08,NW,312,0.0,-999.0,66,0.00,,,0.00,1,WeatherHawk,2013-09-03 09:09:00,
2013-09-03 05:14:00,66.7,54.6,30.08,NE,39,0.0,-999.0,65,0.00,,,0.00,0,WeatherHawk,2013-09-03 09:14:00,
2013-09-03 05:19:00,66.8,54.2,30.09,WNW,292,1.0,-999.0,64,0.00,,,0.00,0,WeatherHawk,2013-09-03 09:19:00,
2013-09-03 05:24:00,66.9,53.8,30.08,NNW,330,2.0,-999.0,63,0.00,,,0.00,1,WeatherHawk,2013-09-03 09:24:00,
2013-09-03 05:29:00,66.6,53.6,30.09,NW,316,1.0,-999.0,63,0.00,,,0.00,0,WeatherHawk,2013-09-03 09:29:00,
2013-09-03 05:34:00,66.7,53.7,30.09,NW,307,0.0,-999.0,63,0.00,,,0.00,0,WeatherHawk,2013-09-03 09:34:00,
2013-09-03 05:39:00,66.6,53.6,30.10,NW,323,0.0,-999.0,63,0.00,,,0.00,0,WeatherHawk,2013-09-03 09:39:00,
2013-09-03 05:44:00,66.5,53.5,30.10,North,349,2.0,-999.0,63,0.00,,,0.00,0,WeatherHawk,2013-09-03 09:44:00,
2013-09-03 05:49:00,65.9,52.9,30.10,NW,325,0.0,-999.0,63,0.00,,,0.00,0,WeatherHawk,2013-09-03 09:49:00,
2013-09-03 05:54:00,66.2,53.7,30.10,NNW,328,0.0,-999.0,64,0.00,,,0.00,0,WeatherHawk,2013-09-03 09:54:00,
2013-09-03 05:59:00,66.0,53.9,30.10,NNW,331,0.0,-999.0,65,0.00,,,0.00,0,WeatherHawk,2013-09-03 09:59:00,
2013-09-03 06:04:00,66.2,53.6,30.10,WNW,284,0.0,-999.0,64,0.00,,,0.00,0,WeatherHawk,2013-09-03 10:04:00,
2013-09-03 06:09:00,66.0,53.0,30.10,NNW,337,0.0,-999.0,63,0.00,,,0.00,0,WeatherHawk,2013-09-03 10:09:00,
2013-09-03 06:14:00,65.7,52.8,30.11,NW,319,0.0,-999.0,63,0.00,,,0.00,0,WeatherHawk,2013-09-03 10:14:00,
2013-09-03 06:19:00,66.0,53.1,30.11,SSW,206,0.0,-999.0,63,0.00,,,0.00,0,WeatherHawk,2013-09-03 10:19:00,
2013-09-03 06:24:00,66.0,53.0,30.11,West,270,0.0,-999.0,63,0.00,,,0.00,0,WeatherHawk,2013-09-03 10:24:00,
2013-09-03 06:29:00,66.2,53.2,30.11,WSW,247,0.0,-999.0,63,0.00,,,0.00,0,WeatherHawk,2013-09-03 10:29:00,
2013-09-03 06:34:00,66.0,52.6,30.12,West,259,0.0,-999.0,62,0.00,,,0.00,0,WeatherHawk,2013-09-03 10:34:00,
2013-09-03 06:39:00,65.9,52.5,30.12,WNW,294,2.0,-999.0,62,0.00,,,0.00,0,WeatherHawk,2013-09-03 10:39:00,
2013-09-03 06:44:00,66.0,52.1,30.12,NNW,340,0.0,-999.0,61,0.00,,,0.00,1,WeatherHawk,2013-09-03 10:44:00,
2013-09-03 06:49:00,65.6,51.8,30.12,NNW,327,0.0,-999.0,61,0.00,,,0.00,1,WeatherHawk,2013-09-03 10:49:00,
2013-09-03 06:54:00,65.8,52.0,30.12,NW,315,0.0,-999.0,61,0.00,,,0.00,1,WeatherHawk,2013-09-03 10:54:00,
2013-09-03 06:59:00,65.7,51.8,30.13,NW,308,1.0,-999.0,61,0.00,,,0.00,2,WeatherHawk,2013-09-03 10:59:00,
2013-09-03 07:04:00,65.4,51.6,30.13,WSW,239,0.0,-999.0,61,0.00,,,0.00,4,WeatherHawk,2013-09-03 11:04:00,
2013-09-03 07:09:00,65.3,51.5,30.13,West,260,0.0,-999.0,61,0.00,,,0.00,4,WeatherHawk,2013-09-03 11:09:00,
2013-09-03 07:14:00,65.2,51.4,30.14,NNW,345,0.0,-999.0,61,0.00,,,0.00,0,WeatherHawk,2013-09-03 11:14:00,
2013-09-03 07:19:00,65.2,51.9,30.14,NW,319,0.0,-999.0,62,0.00,,,0.00,14,WeatherHawk,2013-09-03 11:19:00,
2013-09-03 07:24:00,65.4,51.6,30.14,NW,316,3.0,-999.0,61,0.00,,,0.00,20,WeatherHawk,2013-09-03 11:24:00,
2013-09-03 07:29:00,65.3,51.0,30.13,NNW,327,1.0,-999.0,60,0.00,,,0.00,22,WeatherHawk,2013-09-03 11:29:00,
2013-09-03 07:34:00,65.4,50.2,30.15,WNW,289,3.0,-999.0,58,0.00,,,0.00,30,WeatherHawk,2013-09-03 11:34:00,
2013-09-03 07:39:00,65.1,49.5,30.14,NW,306,2.0,-999.0,57,0.00,,,0.00,30,WeatherHawk,2013-09-03 11:39:00,
2013-09-03 07:44:00,65.2,49.1,30.14,North,2,0.0,-999.0,56,0.00,,,0.00,30,WeatherHawk,2013-09-03 11:44:00,
2013-09-03 07:49:00,65.1,49.0,30.15,WNW,294,0.0,-999.0,56,0.00,,,0.00,36,WeatherHawk,2013-09-03 11:49:00,
2013-09-03 07:54:00,65.2,48.6,30.15,WNW,294,0.0,-999.0,55,0.00,,,0.00,41,WeatherHawk,2013-09-03 11:54:00,
2013-09-03 07:59:00,65.2,48.6,30.15,WNW,302,2.0,-999.0,55,0.00,,,0.00,51,WeatherHawk,2013-09-03 11:59:00,
2013-09-03 08:04:00,65.1,48.1,30.16,NNW,334,2.0,-999.0,54,0.00,,,0.00,56,WeatherHawk,2013-09-03 12:04:00,
2013-09-03 08:09:00,65.4,47.3,30.17,NW,315,0.0,-999.0,52,0.00,,,0.00,65,WeatherHawk,2013-09-03 12:09:00,
2013-09-03 08:14:00,65.8,47.6,30.17,NNW,328,0.0,-999.0,52,0.00,,,0.00,58,WeatherHawk,2013-09-03 12:14:00,
2013-09-03 08:19:00,65.6,47.0,30.17,NW,317,0.0,-999.0,51,0.00,,,0.00,70,WeatherHawk,2013-09-03 12:19:00,
2013-09-03 08:24:00,65.6,46.0,30.17,West,275,1.0,-999.0,49,0.00,,,0.00,88,WeatherHawk,2013-09-03 12:24:00,
2013-09-03 08:29:00,66.2,44.8,30.17,WNW,290,2.0,-999.0,46,0.00,,,0.00,95,WeatherHawk,2013-09-03 12:29:00,
2013-09-03 08:34:00,65.9,44.0,30.16,WNW,294,1.0,-999.0,45,0.00,,,0.00,84,WeatherHawk,2013-09-03 12:34:00,
2013-09-03 08:39:00,65.8,43.3,30.17,NW,326,3.0,-999.0,44,0.00,,,0.00,63,WeatherHawk,2013-09-03 12:39:00,
2013-09-03 08:44:00,66.1,43.6,30.17,North,0,0.0,-999.0,44,0.00,,,0.00,55,WeatherHawk,2013-09-03 12:44:00,
2013-09-03 08:49:00,66.0,42.9,30.16,NW,312,3.0,-999.0,43,0.00,,,0.00,55,WeatherHawk,2013-09-03 12:49:00,
2013-09-03 08:54:00,66.3,43.2,30.16,WNW,297,2.0,-999.0,43,0.00,,,0.00,52,WeatherHawk,2013-09-03 12:54:00,
2013-09-03 08:59:00,66.6,42.8,30.17,West,281,1.0,-999.0,42,0.00,,,0.00,56,WeatherHawk,2013-09-03 12:59:00,
2013-09-03 09:04:00,66.6,42.1,30.16,West,279,2.0,-999.0,41,0.00,,,0.00,252,WeatherHawk,2013-09-03 13:04:00,
2013-09-03 09:09:00,67.4,42.2,30.17,WNW,283,1.0,-999.0,40,0.00,,,0.00,273,WeatherHawk,2013-09-03 13:09:00,
2013-09-03 09:14:00,67.7,41.9,30.17,NW,320,0.0,-999.0,39,0.00,,,0.00,287,WeatherHawk,2013-09-03 13:14:00,
2013-09-03 09:19:00,67.3,39.5,30.16,WNW,298,2.0,-999.0,36,0.00,,,0.00,300,WeatherHawk,2013-09-03 13:19:00,
2013-09-03 09:24:00,69.7,40.8,30.17,WNW,292,1.0,-999.0,35,0.00,,,0.00,327,WeatherHawk,2013-09-03 13:24:00,
2013-09-03 09:29:00,70.0,39.5,30.17,West,273,2.0,-999.0,33,0.00,,,0.00,339,WeatherHawk,2013-09-03 13:29:00,
2013-09-03 09:34:00,70.3,39.0,30.17,WSW,257,1.0,-999.0,32,0.00,,,0.00,359,WeatherHawk,2013-09-03 13:34:00,
2013-09-03 09:39:00,69.5,38.3,30.16,West,278,3.0,-999.0,32,0.00,,,0.00,376,WeatherHawk,2013-09-03 13:39:00,
2013-09-03 09:44:00,69.2,37.3,30.16,NW,310,3.0,-999.0,31,0.00,,,0.00,392,WeatherHawk,2013-09-03 13:44:00,
2013-09-03 09:49:00,70.6,37.7,30.16,WNW,293,1.0,-999.0,30,0.00,,,0.00,408,WeatherHawk,2013-09-03 13:49:00,
2013-09-03 09:54:00,69.4,36.6,30.15,NW,318,3.0,-999.0,30,0.00,,,0.00,421,WeatherHawk,2013-09-03 13:54:00,
2013-09-03 09:59:00,72.9,37.9,30.16,West,259,2.0,-999.0,28,0.00,,,0.00,435,WeatherHawk,2013-09-03 13:59:00,
2013-09-03 10:04:00,70.8,36.1,30.16,WNW,292,1.0,-999.0,28,0.00,,,0.00,451,WeatherHawk,2013-09-03 14:04:00,
2013-09-03 10:09:00,70.2,33.7,30.16,NNW,332,4.0,-999.0,26,0.00,,,0.00,466,WeatherHawk,2013-09-03 14:09:00,
2013-09-03 10:14:00,74.5,37.3,30.14,West,281,0.0,-999.0,26,0.00,,,0.00,478,WeatherHawk,2013-09-03 14:14:00,
2013-09-03 10:19:00,73.3,34.3,30.14,WSW,251,1.0,-999.0,24,0.00,,,0.00,495,WeatherHawk,2013-09-03 14:19:00,
2013-09-03 10:24:00,71.6,31.9,30.15,NNW,339,1.0,-999.0,23,0.00,,,0.00,511,WeatherHawk,2013-09-03 14:24:00,
2013-09-03 10:29:00,74.8,33.4,30.15,WSW,238,1.0,-999.0,22,0.00,,,0.00,524,WeatherHawk,2013-09-03 14:29:00,
2013-09-03 10:34:00,72.7,30.5,30.14,WSW,244,0.0,-999.0,21,0.00,,,0.00,539,WeatherHawk,2013-09-03 14:34:00,
2013-09-03 10:39:00,73.7,30.1,30.14,West,280,2.0,-999.0,20,0.00,,,0.00,555,WeatherHawk,2013-09-03 14:39:00,
2013-09-03 10:44:00,74.7,29.7,30.15,East,87,0.0,-999.0,19,0.00,,,0.00,568,WeatherHawk,2013-09-03 14:44:00,
2013-09-03 10:49:00,74.1,29.2,30.14,WNW,303,5.0,-999.0,19,0.00,,,0.00,583,WeatherHawk,2013-09-03 14:49:00,
2013-09-03 10:54:00,72.0,28.7,30.15,NNW,339,6.0,-999.0,20,0.00,,,0.00,591,WeatherHawk,2013-09-03 14:54:00,
2013-09-03 10:59:00,73.1,28.4,30.15,NNW,336,5.0,-999.0,19,0.00,,,0.00,605,WeatherHawk,2013-09-03 14:59:00,
2013-09-03 11:04:00,74.2,28.0,30.15,West,276,0.0,-999.0,18,0.00,,,0.00,620,WeatherHawk,2013-09-03 15:04:00,
2013-09-03 11:09:00,72.3,25.1,30.14,NNE,13,5.0,-999.0,17,0.00,,,0.00,631,WeatherHawk,2013-09-03 15:09:00,
2013-09-03 11:14:00,74.2,26.5,30.15,West,271,2.0,-999.0,17,0.00,,,0.00,641,WeatherHawk,2013-09-03 15:14:00,
2013-09-03 11:19:00,74.8,24.1,30.14,West,272,1.0,-999.0,15,0.00,,,0.00,655,WeatherHawk,2013-09-03 15:19:00,
2013-09-03 11:24:00,76.4,25.3,30.15,SSW,211,2.0,-999.0,15,0.00,,,0.00,664,WeatherHawk,2013-09-03 15:24:00,
2013-09-03 11:29:00,71.8,21.7,30.16,NW,313,3.0,-999.0,15,0.00,,,0.00,673,WeatherHawk,2013-09-03 15:29:00,
2013-09-03 11:34:00,72.7,20.7,30.15,WNW,300,6.0,-999.0,14,0.00,,,0.00,684,WeatherHawk,2013-09-03 15:34:00,
2013-09-03 11:39:00,72.6,18.9,30.16,West,280,6.0,-999.0,13,0.00,,,0.00,694,WeatherHawk,2013-09-03 15:39:00,
2013-09-03 11:44:00,78.3,23.4,30.15,SE,124,0.0,-999.0,13,0.00,,,0.00,698,WeatherHawk,2013-09-03 15:44:00,
2013-09-03 11:49:00,72.8,20.8,30.16,NW,312,6.0,-999.0,14,0.00,,,0.00,711,WeatherHawk,2013-09-03 15:49:00,
2013-09-03 11:54:00,79.4,26.1,30.15,West,265,3.0,-999.0,14,0.00,,,0.00,718,WeatherHawk,2013-09-03 15:54:00,
2013-09-03 11:59:00,76.3,21.8,30.15,NW,311,4.0,-999.0,13,0.00,,,0.00,731,WeatherHawk,2013-09-03 15:59:00,
2013-09-03 12:04:00,75.0,16.9,30.15,West,281,0.0,-999.0,11,0.00,,,0.00,736,WeatherHawk,2013-09-03 16:04:00,
2013-09-03 12:09:00,72.9,19.2,30.16,WNW,288,3.0,-999.0,13,0.00,,,0.00,744,WeatherHawk,2013-09-03 16:09:00,
2013-09-03 12:14:00,82.1,20.2,30.15,WSW,253,0.0,-999.0,10,0.00,,,0.00,768,WeatherHawk,2013-09-03 16:14:00,
2013-09-03 12:19:00,74.9,18.9,30.15,NNW,333,7.0,-999.0,12,0.00,,,0.00,218,WeatherHawk,2013-09-03 16:19:00,
2013-09-03 12:24:00,73.7,21.5,30.15,NW,313,4.0,-999.0,14,0.00,,,0.00,854,WeatherHawk,2013-09-03 16:24:00,
2013-09-03 12:29:00,78.0,19.3,30.16,SW,226,4.0,-999.0,11,0.00,,,0.00,851,WeatherHawk,2013-09-03 16:29:00,
2013-09-03 12:34:00,78.5,17.4,30.15,NNW,332,4.0,-999.0,10,0.00,,,0.00,917,WeatherHawk,2013-09-03 16:34:00,
2013-09-03 12:39:00,76.4,20.0,30.15,WNW,285,1.0,-999.0,12,0.00,,,0.00,547,WeatherHawk,2013-09-03 16:39:00,
2013-09-03 12:44:00,77.2,24.3,30.15,SW,230,2.0,-999.0,14,0.00,,,0.00,188,WeatherHawk,2013-09-03 16:44:00,
2013-09-03 12:49:00,76.2,19.9,30.15,North,7,2.0,-999.0,12,0.00,,,0.00,290,WeatherHawk,2013-09-03 16:49:00,
2013-09-03 12:54:00,75.8,19.6,30.16,WSW,258,1.0,-999.0,12,0.00,,,0.00,240,WeatherHawk,2013-09-03 16:54:00,
2013-09-03 12:59:00,77.5,24.6,30.16,NW,314,1.0,-999.0,14,0.00,,,0.00,931,WeatherHawk,2013-09-03 16:59:00,
2013-09-03 13:04:00,76.5,20.1,30.14,SW,218,5.0,-999.0,12,0.00,,,0.00,398,WeatherHawk,2013-09-03 17:04:00,
2013-09-03 13:09:00,77.2,26.0,30.15,NW,305,2.0,-999.0,15,0.00,,,0.00,890,WeatherHawk,2013-09-03 17:09:00,
2013-09-03 13:14:00,76.3,19.9,30.15,NNW,331,2.0,-999.0,12,0.00,,,0.00,275,WeatherHawk,2013-09-03 17:14:00,
2013-09-03 13:19:00,74.9,20.7,30.15,NW,308,4.0,-999.0,13,0.00,,,0.00,951,WeatherHawk,2013-09-03 17:19:00,
2013-09-03 13:24:00,79.0,20.0,30.16,WSW,252,6.0,-999.0,11,0.00,,,0.00,911,WeatherHawk,2013-09-03 17:24:00,
2013-09-03 13:29:00,75.8,13.0,30.16,WSW,246,5.0,-999.0,9,0.00,,,0.00,923,WeatherHawk,2013-09-03 17:29:00,
2013-09-03 13:34:00,76.1,17.8,30.15,WNW,289,6.0,-999.0,11,0.00,,,0.00,902,WeatherHawk,2013-09-03 17:34:00,
2013-09-03 13:39:00,78.0,21.3,30.13,WNW,294,7.0,-999.0,12,0.00,,,0.00,960,WeatherHawk,2013-09-03 17:39:00,
2013-09-03 13:44:00,75.7,17.5,30.15,NW,309,5.0,-999.0,11,0.00,,,0.00,867,WeatherHawk,2013-09-03 17:44:00,
2013-09-03 13:49:00,74.3,18.4,30.15,West,281,5.0,-999.0,12,0.00,,,0.00,217,WeatherHawk,2013-09-03 17:49:00,
2013-09-03 13:54:00,76.7,13.6,30.14,NW,324,2.0,-999.0,9,0.00,,,0.00,834,WeatherHawk,2013-09-03 17:54:00,
2013-09-03 13:59:00,77.3,14.1,30.14,NNW,339,1.0,-999.0,9,0.00,,,0.00,272,WeatherHawk,2013-09-03 17:59:00,
2013-09-03 14:04:00,77.8,14.5,30.14,NW,312,5.0,-999.0,9,0.00,,,0.00,884,WeatherHawk,2013-09-03 18:04:00,
2013-09-03 14:09:00,76.9,18.4,30.14,NW,314,4.0,-999.0,11,0.00,,,0.00,836,WeatherHawk,2013-09-03 18:09:00,
2013-09-03 14:14:00,77.8,11.8,30.14,WNW,285,4.0,-999.0,8,0.00,,,0.00,868,WeatherHawk,2013-09-03 18:14:00,
2013-09-03 14:19:00,78.8,12.5,30.14,WSW,237,4.0,-999.0,8,0.00,,,0.00,746,WeatherHawk,2013-09-03 18:19:00,
2013-09-03 14:24:00,79.0,15.4,30.14,West,280,5.0,-999.0,9,0.00,,,0.00,821,WeatherHawk,2013-09-03 18:24:00,
2013-09-03 14:30:00,77.4,16.6,30.14,WNW,293,8.0,-999.0,10,0.00,,,0.00,824,WeatherHawk,2013-09-03 18:30:00,
2013-09-03 14:40:00,80.4,13.7,30.13,WNW,293,1.0,-999.0,8,0.00,,,0.00,831,WeatherHawk,2013-09-03 18:40:00,
2013-09-03 14:49:00,78.4,12.2,30.13,West,262,4.0,-999.0,8,0.00,,,0.00,202,WeatherHawk,2013-09-03 18:49:00,
2013-09-03 14:54:00,78.1,17.1,30.14,NNW,329,1.0,-999.0,10,0.00,,,0.00,833,WeatherHawk,2013-09-03 18:54:00,
2013-09-03 14:59:00,78.3,9.2,30.13,NW,310,2.0,-999.0,7,0.00,,,0.00,851,WeatherHawk,2013-09-03 18:59:00,
2013-09-03 15:04:00,81.1,14.3,30.13,NNW,336,0.0,-999.0,8,0.00,,,0.00,806,WeatherHawk,2013-09-03 19:04:00,
2013-09-03 15:09:00,81.5,11.5,30.13,WNW,291,2.0,-999.0,7,0.00,,,0.00,789,WeatherHawk,2013-09-03 19:09:00,
2013-09-03 15:14:00,77.4,11.5,30.12,NW,304,5.0,-999.0,8,0.00,,,0.00,860,WeatherHawk,2013-09-03 19:14:00,
2013-09-03 15:20:00,80.4,7.3,30.11,NW,308,1.0,-999.0,6,0.00,,,0.00,845,WeatherHawk,2013-09-03 19:20:00,
2013-09-03 15:30:00,76.7,13.7,30.13,NW,321,3.0,-999.0,9,0.00,,,0.00,699,WeatherHawk,2013-09-03 19:30:00,
2013-09-03 15:39:00,77.1,14.0,30.12,NW,322,6.0,-999.0,9,0.00,,,0.00,609,WeatherHawk,2013-09-03 19:39:00,
2013-09-03 15:49:00,77.4,14.2,30.11,NNE,28,5.0,-999.0,9,0.00,,,0.00,418,WeatherHawk,2013-09-03 19:49:00,
2013-09-03 15:59:00,77.8,8.8,30.12,West,263,1.0,-999.0,7,0.00,,,0.00,729,WeatherHawk,2013-09-03 19:59:00,
2013-09-03 16:04:00,81.8,17.5,30.12,SSW,212,1.0,-999.0,9,0.00,,,0.00,738,WeatherHawk,2013-09-03 20:04:00,
2013-09-03 16:10:00,79.2,15.5,30.11,NW,316,2.0,-999.0,9,0.00,,,0.00,210,WeatherHawk,2013-09-03 20:10:00,
2013-09-03 16:19:00,77.8,16.9,30.13,West,277,2.0,-999.0,10,0.00,,,0.00,271,WeatherHawk,2013-09-03 20:19:00,
2013-09-03 16:24:00,85.9,14.7,30.12,NNE,32,0.0,-999.0,7,0.00,,,0.00,701,WeatherHawk,2013-09-03 20:24:00,
2013-09-03 16:30:00,77.0,4.9,30.12,NW,313,5.0,-999.0,6,0.00,,,0.00,674,WeatherHawk,2013-09-03 20:30:00,
2013-09-03 16:35:00,78.7,15.2,30.12,NW,311,1.0,-999.0,9,0.00,,,0.00,718,WeatherHawk,2013-09-03 20:35:00,
2013-09-03 16:44:00,83.4,16.0,30.12,North,1,2.0,-999.0,8,0.00,,,0.00,572,WeatherHawk,2013-09-03 20:44:00,
2013-09-03 16:50:00,78.8,15.2,30.13,NW,325,4.0,-999.0,9,0.00,,,0.00,184,WeatherHawk,2013-09-03 20:50:00,
2013-09-03 16:59:00,80.8,14.0,30.13,NW,317,0.0,-999.0,8,0.00,,,0.00,659,WeatherHawk,2013-09-03 20:59:00,
2013-09-03 17:05:00,77.7,11.7,30.12,NW,309,1.0,-999.0,8,0.00,,,0.00,157,WeatherHawk,2013-09-03 21:05:00,
2013-09-03 17:10:00,81.7,19.8,30.13,North,349,1.0,-999.0,10,0.00,,,0.00,569,WeatherHawk,2013-09-03 21:10:00,
2013-09-03 17:19:00,83.1,12.7,30.13,NE,45,0.0,-999.0,7,0.00,,,0.00,584,WeatherHawk,2013-09-03 21:19:00,
2013-09-03 17:25:00,84.4,10.2,30.12,South,181,0.0,-999.0,6,0.00,,,0.00,529,WeatherHawk,2013-09-03 21:25:00,
2013-09-03 17:34:00,80.7,14.0,30.13,SSE,148,0.0,-999.0,8,0.00,,,0.00,482,WeatherHawk,2013-09-03 21:34:00,
2013-09-03 17:39:00,82.5,15.3,30.12,NNE,13,0.0,-999.0,8,0.00,,,0.00,453,WeatherHawk,2013-09-03 21:39:00,
2013-09-03 17:44:00,81.8,11.7,30.12,South,179,1.0,-999.0,7,0.00,,,0.00,383,WeatherHawk,2013-09-03 21:44:00,
2013-09-03 17:49:00,79.0,9.7,30.14,West,277,4.0,-999.0,7,0.00,,,0.00,417,WeatherHawk,2013-09-03 21:49:00,
2013-09-03 17:54:00,80.5,13.8,30.14,NNW,346,0.0,-999.0,8,0.00,,,0.00,416,WeatherHawk,2013-09-03 21:54:00,
2013-09-03 18:00:00,76.8,18.3,30.14,NW,320,4.0,-999.0,11,0.00,,,0.00,85,WeatherHawk,2013-09-03 22:00:00,
2013-09-03 18:09:00,80.1,20.8,30.15,NNW,332,0.0,-999.0,11,0.00,,,0.00,319,WeatherHawk,2013-09-03 22:09:00,
2013-09-03 18:14:00,78.7,19.8,30.14,NNE,31,0.0,-999.0,11,0.00,,,0.00,272,WeatherHawk,2013-09-03 22:14:00,
2013-09-03 18:19:00,78.7,19.8,30.14,ESE,112,1.0,-999.0,11,0.00,,,0.00,288,WeatherHawk,2013-09-03 22:19:00,
2013-09-03 18:24:00,78.6,21.7,30.14,North,351,0.0,-999.0,12,0.00,,,0.00,270,WeatherHawk,2013-09-03 22:24:00,
2013-09-03 18:29:00,77.5,22.8,30.15,East,95,0.0,-999.0,13,0.00,,,0.00,248,WeatherHawk,2013-09-03 22:29:00,
2013-09-03 18:34:00,78.2,21.4,30.15,North,0,0.0,-999.0,12,0.00,,,0.00,210,WeatherHawk,2013-09-03 22:34:00,
2013-09-03 18:39:00,75.3,22.8,30.14,WNW,295,0.0,-999.0,14,0.00,,,0.00,207,WeatherHawk,2013-09-03 22:39:00,
2013-09-03 18:44:00,75.8,23.2,30.15,NE,38,3.0,-999.0,14,0.00,,,0.00,187,WeatherHawk,2013-09-03 22:44:00,
2013-09-03 18:49:00,75.7,23.1,30.15,SSE,157,0.0,-999.0,14,0.00,,,0.00,172,WeatherHawk,2013-09-03 22:49:00,
2013-09-03 18:54:00,76.4,23.7,30.16,ESE,120,0.0,-999.0,14,0.00,,,0.00,163,WeatherHawk,2013-09-03 22:54:00,
2013-09-03 18:59:00,76.2,23.5,30.15,SSE,147,0.0,-999.0,14,0.00,,,0.00,151,WeatherHawk,2013-09-03 22:59:00,
2013-09-03 19:05:00,75.8,23.2,30.17,WNW,294,0.0,-999.0,14,0.00,,,0.00,143,WeatherHawk,2013-09-03 23:05:00,
2013-09-03 19:14:00,75.4,27.6,30.16,East,85,0.0,-999.0,17,0.00,,,0.00,111,WeatherHawk,2013-09-03 23:14:00,
2013-09-03 19:20:00,74.5,28.2,30.16,ESE,113,0.0,-999.0,18,0.00,,,0.00,95,WeatherHawk,2013-09-03 23:20:00,
2013-09-03 19:29:00,72.9,26.9,30.18,South,172,0.0,-999.0,18,0.00,,,0.00,67,WeatherHawk,2013-09-03 23:29:00,
2013-09-03 19:34:00,72.4,29.0,30.16,North,7,0.0,-999.0,20,0.00,,,0.00,53,WeatherHawk,2013-09-03 23:34:00,
2013-09-03 19:39:00,71.2,29.3,30.17,WSW,240,0.0,-999.0,21,0.00,,,0.00,41,WeatherHawk,2013-09-03 23:39:00,
2013-09-03 19:44:00,71.2,30.4,30.18,SW,231,0.0,-999.0,22,0.00,,,0.00,29,WeatherHawk,2013-09-03 23:44:00,
2013-09-03 19:49:00,70.4,30.9,30.18,WSW,251,0.0,-999.0,23,0.00,,,0.00,14,WeatherHawk,2013-09-03 23:49:00,
2013-09-03 19:54:00,69.8,32.4,30.20,SW,218,0.0,-999.0,25,0.00,,,0.00,5,WeatherHawk,2013-09-03 23:54:00,
2013-09-03 19:59:00,69.1,33.7,30.19,South,187,0.0,-999.0,27,0.00,,,0.00,2,WeatherHawk,2013-09-03 23:59:00,
2013-09-03 20:04:00,68.8,34.4,30.19,SW,227,0.0,-999.0,28,0.00,,,0.00,1,WeatherHawk,2013-09-04 00:04:00,
2013-09-03 20:09:00,67.9,35.4,30.20,NW,316,0.0,-999.0,30,0.00,,,0.00,0,WeatherHawk,2013-09-04 00:09:00,
2013-09-03 20:14:00,66.7,35.9,30.20,NW,316,0.0,-999.0,32,0.00,,,0.00,1,WeatherHawk,2013-09-04 00:14:00,
2013-09-03 20:19:00,66.3,37.1,30.21,WSW,255,0.0,-999.0,34,0.00,,,0.00,0,WeatherHawk,2013-09-04 00:19:00,
2013-09-03 20:24:00,66.1,39.1,30.21,WSW,255,0.0,-999.0,37,0.00,,,0.00,0,WeatherHawk,2013-09-04 00:24:00,
2013-09-03 20:29:00,66.1,41.1,30.22,WSW,237,0.0,-999.0,40,0.00,,,0.00,0,WeatherHawk,2013-09-04 00:29:00,
2013-09-03 20:34:00,65.1,41.5,30.21,SSW,208,0.0,-999.0,42,0.00,,,0.00,0,WeatherHawk,2013-09-04 00:34:00,
2013-09-03 20:44:00,65.2,42.1,30.22,SSW,213,0.0,-999.0,43,0.00,,,0.00,0,WeatherHawk,2013-09-04 00:44:00,
2013-09-03 20:49:00,65.0,42.5,30.23,SSW,207,0.0,-999.0,44,0.00,,,0.00,1,WeatherHawk,2013-09-04 00:49:00,
2013-09-03 20:54:00,63.7,42.5,30.23,WSW,240,0.0,-999.0,46,0.00,,,0.00,0,WeatherHawk,2013-09-04 00:54:00,
2013-09-03 21:00:00,64.3,43.7,30.24,WSW,239,0.0,-999.0,47,0.00,,,0.00,0,WeatherHawk,2013-09-04 01:00:00,
2013-09-03 21:05:00,63.5,42.4,30.24,SW,234,0.0,-999.0,46,0.00,,,0.00,2,WeatherHawk,2013-09-04 01:05:00,
2013-09-03 21:14:00,64.2,44.1,30.24,SW,233,0.0,-999.0,48,0.00,,,0.00,0,WeatherHawk,2013-09-04 01:14:00,
2013-09-03 21:19:00,63.9,43.3,30.24,SE,141,0.0,-999.0,47,0.00,,,0.00,0,WeatherHawk,2013-09-04 01:19:00,
2013-09-03 21:24:00,64.2,41.8,30.25,WNW,282,0.0,-999.0,44,0.00,,,0.00,0,WeatherHawk,2013-09-04 01:24:00,
2013-09-03 21:29:00,63.6,41.3,30.24,SW,215,0.0,-999.0,44,0.00,,,0.00,0,WeatherHawk,2013-09-04 01:29:00,
2013-09-03 21:35:00,63.0,42.5,30.25,SW,216,0.0,-999.0,47,0.00,,,0.00,0,WeatherHawk,2013-09-04 01:35:00,
2013-09-03 21:44:00,64.3,41.3,30.25,NW,308,0.0,-999.0,43,0.00,,,0.00,0,WeatherHawk,2013-09-04 01:44:00,
2013-09-03 21:49:00,64.2,41.8,30.26,SSW,194,0.0,-999.0,44,0.00,,,0.00,0,WeatherHawk,2013-09-04 01:49:00,
2013-09-03 21:54:00,64.3,40.1,30.26,East,97,0.0,-999.0,41,0.00,,,0.00,0,WeatherHawk,2013-09-04 01:54:00,
2013-09-03 21:59:00,63.9,40.3,30.26,WSW,243,0.0,-999.0,42,0.00,,,0.00,0,WeatherHawk,2013-09-04 01:59:00,
2013-09-03 22:04:00,63.6,40.1,30.25,SW,220,0.0,-999.0,42,0.00,,,0.00,0,WeatherHawk,2013-09-04 02:04:00,
2013-09-03 22:09:00,62.8,39.4,30.26,SSW,193,0.0,-999.0,42,0.00,,,0.00,0,WeatherHawk,2013-09-04 02:09:00,
2013-09-03 22:14:00,63.0,40.8,30.26,SSE,149,0.0,-999.0,44,0.00,,,0.00,0,WeatherHawk,2013-09-04 02:14:00,
2013-09-03 22:20:00,62.7,40.5,30.27,SSW,195,0.0,-999.0,44,0.00,,,0.00,0,WeatherHawk,2013-09-04 02:20:00,
2013-09-03 22:30:00,62.4,41.3,30.27,WSW,238,0.0,-999.0,46,0.00,,,0.00,0,WeatherHawk,2013-09-04 02:30:00,
2013-09-03 22:40:00,62.5,40.8,30.27,East,93,0.0,-999.0,45,0.00,,,0.00,0,WeatherHawk,2013-09-04 02:40:00,
2013-09-03 22:49:00,61.0,41.1,30.27,SE,125,0.0,-999.0,48,0.00,,,0.00,0,WeatherHawk,2013-09-04 02:49:00,
2013-09-03 22:54:00,61.3,42.5,30.28,SE,129,0.0,-999.0,50,0.00,,,0.00,0,WeatherHawk,2013-09-04 02:54:00,
2013-09-03 22:59:00,60.6,42.4,30.28,SE,125,0.0,-999.0,51,0.00,,,0.00,0,WeatherHawk,2013-09-04 02:59:00,
2013-09-03 23:04:00,61.0,43.8,30.28,SE,125,0.0,-999.0,53,0.00,,,0.00,0,WeatherHawk,2013-09-04 03:04:00,
2013-09-03 23:09:00,60.5,43.3,30.29,SE,125,0.0,-999.0,53,0.00,,,0.00,1,WeatherHawk,2013-09-04 03:09:00,
2013-09-03 23:14:00,60.3,43.1,30.29,SE,125,0.0,-999.0,53,0.00,,,0.00,0,WeatherHawk,2013-09-04 03:14:00,
2013-09-03 23:19:00,60.5,44.2,30.30,SE,125,0.0,-999.0,55,0.00,,,0.00,0,WeatherHawk,2013-09-04 03:19:00,
2013-09-03 23:24:00,60.3,44.5,30.30,SE,125,0.0,-999.0,56,0.00,,,0.00,0,WeatherHawk,2013-09-04 03:24:00,
2013-09-03 23:29:00,59.5,44.7,30.29,SE,125,0.0,-999.0,58,0.00,,,0.00,0,WeatherHawk,2013-09-04 03:29:00,
2013-09-03 23:35:00,58.9,44.6,30.31,SE,125,0.0,-999.0,59,0.00,,,0.00,0,WeatherHawk,2013-09-04 03:35:00,
2013-09-03 23:44:00,60.6,46.7,30.30,NNW,333,0.0,-999.0,60,0.00,,,0.00,0,WeatherHawk,2013-09-04 03:44:00,
2013-09-03 23:49:00,58.2,43.5,30.30,NNW,336,0.0,-999.0,58,0.00,,,0.00,1,WeatherHawk,2013-09-04 03:49:00,
2013-09-03 23:54:00,59.0,45.6,30.30,NNW,336,0.0,-999.0,61,0.00,,,0.00,0,WeatherHawk,2013-09-04 03:54:00,
2013-09-03 23:59:00,59.2,47.0,30.30,SE,137,0.0,-999.0,64,0.00,,,0.00,0,WeatherHawk,2013-09-04 03:59:00,